EW8328 Weather Reports


Display with metric or nautical units.
time (UTC)temp
F
wind
direction
speed
MPH
gust
MPH
rain 1hr
in
rain 24hr
in
rain mn
in
humidity
%
barometer
mb
20260505041354 40 325 1.0 2.0 0.00 0.00 0.00 91 1013.5
20260505040855 40 333 0.0 2.0 0.00 0.00 0.00 90 1013.6
20260505040354 40 333 0.0 2.0 0.00 0.00 0.00 90 1013.6
20260505035855 40 333 0.0 2.0 0.00 0.00 0.00 89 1013.5
20260505035353 40 333 0.0 1.0 0.00 0.00 0.00 90 1013.5
20260505034854 41 333 1.0 1.0 0.00 0.00 0.00 90 1013.5
20260505034355 41 333 0.0 2.0 0.00 0.00 0.00 90 1013.6
20260505033854 41 315 1.0 2.0 0.00 0.00 0.00 90 1013.5
20260505033354 41 305 0.0 2.0 0.00 0.00 0.00 90 1013.5
20260505032854 41 305 1.0 2.0 0.00 0.00 0.00 90 1013.4
20260505032355 41 314 1.0 3.0 0.00 0.00 0.00 90 1013.5
20260505031854 41 319 1.0 2.0 0.00 0.00 0.00 90 1013.5
20260505031354 41 323 1.0 3.0 0.00 0.00 0.00 89 1013.6
20260505030354 41 293 1.0 1.0 0.00 0.00 0.00 89 1013.6
20260505025854 41 302 1.0 3.0 0.00 0.00 0.00 89 1013.6
20260505025354 41 304 1.0 2.0 0.00 0.00 0.00 89 1013.7
20260505024854 41 296 2.0 3.0 0.00 0.00 0.00 89 1013.7
20260505024354 41 288 2.0 3.0 0.00 0.00 0.00 89 1013.7
20260505023854 41 320 1.0 3.0 0.00 0.00 0.00 88 1013.6
20260505022854 42 259 1.0 2.0 0.00 0.00 0.00 88 1013.6
20260505022354 42 259 1.0 3.0 0.00 0.00 0.00 87 1013.7
20260505021854 42 248 0.0 1.0 0.00 0.00 0.00 87 1013.6
20260505021354 42 269 1.0 3.0 0.00 0.00 0.00 88 1013.6
20260505015855 43 296 1.0 3.0 0.00 0.00 0.00 87 1013.7
20260505014354 43 252 1.0 3.0 0.00 0.00 0.00 86 1013.8
20260505013856 43 239 1.0 2.0 0.00 0.00 0.00 86 1013.8
20260505013354 43 287 1.0 3.0 0.00 0.00 0.00 86 1013.8
20260505012855 43 272 1.0 2.0 0.00 0.00 0.00 86 1013.9
20260505012353 43 301 2.0 5.0 0.00 0.00 0.00 86 1013.9
20260505011854 43 308 1.0 2.0 0.00 0.00 0.00 85 1014.0
20260505011353 43 296 1.0 3.0 0.00 0.00 0.00 85 1014.0
20260505010854 43 244 2.0 3.0 0.00 0.00 0.00 85 1014.0
20260505010354 43 245 1.0 3.0 0.00 0.00 0.00 84 1014.0
20260505005854 44 274 0.0 2.0 0.00 0.00 0.00 84 1013.9
20260505005354 44 301 0.0 2.0 0.00 0.00 0.00 84 1013.9
20260505004854 44 301 1.0 3.0 0.00 0.00 0.00 84 1014.0
20260505003354 44 306 1.0 2.0 0.00 0.00 0.00 83 1014.1
20260505002854 44 306 1.0 2.0 0.00 0.00 0.00 83 1014.1
20260505002354 44 311 2.0 8.0 0.00 0.00 0.00 83 1014.1
20260505001854 44 300 2.0 5.0 0.00 0.00 0.00 83 1014.2
20260505001353 45 293 1.0 3.0 0.00 0.00 0.00 83 1014.2
20260505000854 45 321 1.0 3.0 0.00 0.00 0.00 83 1014.2
20260504235354 45 304 2.0 3.0 0.00 0.00 0.00 84 1014.2
20260504234854 45 325 1.0 3.0 0.00 0.00 0.00 84 1014.3
20260504234354 44 300 1.0 3.0 0.00 0.00 0.00 83 1014.3
20260504233354 45 309 1.0 2.0 0.00 0.00 0.00 83 1014.3
20260504232854 45 309 1.0 3.0 0.00 0.00 0.00 83 1014.3
20260504232353 45 308 1.0 3.0 0.00 0.00 0.00 83 1014.2
20260504231854 45 302 1.0 3.0 0.00 0.00 0.00 84 1014.2
20260504231354 45 292 0.0 2.0 0.00 0.00 0.00 84 1014.3
20260504230937 45 303 1.0 3.0 0.00 0.00 0.00 84 1014.3
20260504225354 45 304 1.0 3.0 0.00 0.00 0.00 85 1014.3
20260504224854 45 238 1.0 3.0 0.00 0.00 0.00 84 1014.3
20260504224354 45 252 1.0 3.0 0.00 0.00 0.00 85 1014.3
20260504223354 46 252 2.0 3.0 0.00 0.00 0.00 85 1014.4
20260504222354 46 277 1.0 3.0 0.00 0.00 0.00 85 1014.6
20260504221854 46 248 1.0 3.0 0.00 0.00 0.00 84 1014.6
20260504221354 46 248 1.0 3.0 0.00 0.00 0.00 84 1014.6
20260504220854 46 231 1.0 3.0 0.00 0.00 0.00 84 1014.6
20260504215853 47 305 1.0 3.0 0.00 0.00 0.00 84 1014.6
20260504215354 47 314 1.0 3.0 0.00 0.00 0.00 83 1014.5
20260504214853 47 304 1.0 3.0 0.00 0.00 0.00 83 1014.5
20260504214354 47 273 1.0 3.0 0.00 0.00 0.00 83 1014.5
20260504213353 48 272 1.0 3.0 0.00 0.00 0.00 83 1014.5
20260504212854 48 270 1.0 3.0 0.00 0.00 0.00 83 1014.6
20260504212354 48 270 1.0 3.0 0.00 0.00 0.00 83 1014.6
20260504211854 48 270 1.0 3.0 0.00 0.00 0.00 83 1014.7
20260504211354 48 270 1.0 2.0 0.00 0.00 0.00 83 1014.7
20260504210853 49 270 1.0 3.0 0.00 0.00 0.00 83 1014.7
20260504210354 49 275 1.0 2.0 0.00 0.00 0.00 83 1014.7
20260504205853 49 275 1.0 2.0 0.00 0.00 0.00 83 1014.7
20260504205354 49 275 1.0 2.0 0.00 0.00 0.00 83 1014.7
20260504204854 49 275 1.0 3.0 0.00 0.00 0.00 83 1014.7
20260504204354 50 275 0.0 3.0 0.00 0.00 0.00 82 1014.7
20260504203853 50 275 0.0 2.0 0.00 0.00 0.00 82 1014.7
20260504203355 50 275 0.0 2.0 0.00 0.00 0.00 82 1014.6
20260504202353 50 275 1.0 3.0 0.00 0.00 0.00 82 1014.6
20260504201854 51 245 1.0 3.0 0.00 0.00 0.00 82 1014.6
20260504201354 51 286 1.0 3.0 0.00 0.00 0.00 82 1014.6
20260504200854 51 270 2.0 3.0 0.00 0.00 0.00 82 1014.6
20260504200354 51 266 1.0 3.0 0.00 0.00 0.00 82 1014.6
20260504195354 51 236 1.0 3.0 0.00 0.00 0.00 81 1014.5
20260504194854 51 236 2.0 3.0 0.00 0.00 0.00 81 1014.5
20260504194354 51 247 2.0 3.0 0.00 0.00 0.00 81 1014.4
20260504193854 52 270 1.0 3.0 0.00 0.00 0.00 81 1014.3
20260504192854 52 264 2.0 6.0 0.00 0.00 0.00 79 1014.3
20260504192353 52 289 1.0 6.0 0.00 0.00 0.00 79 1014.2
20260504191854 53 293 2.0 6.0 0.00 0.00 0.00 78 1014.1
20260504191354 53 266 2.0 7.0 0.00 0.00 0.00 78 1014.1
20260504190854 53 278 2.0 7.0 0.00 0.00 0.00 77 1014.0
20260504190354 54 288 2.0 7.0 0.00 0.00 0.00 77 1014.1
20260504185854 54 279 3.0 6.0 0.00 0.00 0.00 77 1014.0
20260504185354 54 282 3.0 7.0 0.00 0.00 0.00 77 1014.0
20260504184854 54 275 2.0 7.0 0.00 0.00 0.00 77 1014.0
20260504184353 55 281 2.0 3.0 0.00 0.00 0.00 77 1014.1
20260504183854 55 300 2.0 3.0 0.00 0.00 0.00 77 1014.0
20260504183353 55 299 2.0 7.0 0.00 0.00 0.00 77 1014.0
20260504181853 55 239 1.0 3.0 0.00 0.00 0.00 78 1013.9
20260504181353 55 236 1.0 2.0 0.00 0.00 0.00 78 1013.9
20260504180854 55 212 0.0 1.0 0.00 0.00 0.00 78 1013.9
20260504180353 55 212 1.0 2.0 0.00 0.00 0.00 78 1013.9
20260504175854 55 212 0.0 1.0 0.00 0.00 0.00 78 1013.9
20260504175354 55 212 1.0 2.0 0.00 0.00 0.00 78 1013.9
20260504174853 55 212 0.0 2.0 0.00 0.00 0.00 78 1013.9
20260504174354 55 212 0.0 2.0 0.00 0.00 0.00 78 1013.9
20260504173854 55 212 0.0 2.0 0.00 0.00 0.00 77 1013.9
20260504172854 55 269 0.0 2.0 0.00 0.00 0.00 78 1013.9
20260504172353 55 269 0.0 2.0 0.00 0.00 0.00 78 1013.9
20260504171854 55 281 1.0 3.0 0.00 0.00 0.00 78 1013.9
20260504171354 55 325 0.0 1.0 0.00 0.00 0.00 78 1014.0
20260504170853 55 325 1.0 2.0 0.00 0.00 0.00 78 1014.0
20260504170353 55 325 0.0 2.0 0.00 0.00 0.00 78 1014.0
20260504160353 58 203 2.0 3.0 0.00 0.00 0.00 68 1014.1
20260504150853 59 173 5.0 8.0 0.00 0.00 0.00 65 1014.3
20260504150353 58 169 2.0 7.0 0.00 0.00 0.00 66 1014.4
20260504140854 57 209 2.0 6.0 0.00 0.00 0.00 68 1014.7
20260504140353 57 242 1.0 2.0 0.00 0.00 0.00 68 1014.8
20260504130353 56 215 1.0 3.0 0.00 0.00 0.00 71 1015.1
20260504110354 53 168 3.0 6.0 0.00 0.03 0.00 76 1015.3
20260504081853 48 94 2.0 5.0 0.00 0.06 0.00 87 1015.2
20260504081353 48 92 1.0 3.0 0.00 0.07 0.00 87 1015.2
20260504080853 48 92 2.0 6.0 0.00 0.07 0.00 88 1015.2
20260504080353 47 85 2.0 6.0 0.00 0.07 0.00 88 1015.1
20260504070353 46 102 0.0 2.0 0.00 0.09 0.00 92 1014.7
20260504050353 45 15 2.0 5.0 0.00 0.09 0.00 93 1013.9
20260504044853 45 18 1.0 3.0 0.00 0.09 0.00 93 1013.9
20260504044352 45 15 2.0 5.0 0.00 0.09 0.00 93 1013.8